Weather History for Pagosa Springs, CO

Change the Weather History Date:

Wednesday, January 30, 2013

  Actual Average (KDRO) Record (KDRO)
Temperature  
Mean Temperature 8 °F 25 °F  
Max Temperature 24 °F 39 °F 60 °F (1986)
Min Temperature -7 °F 11 °F -18 °F (1979)
Degree Days  
Heating Degree Days 56 40  
Month to date heating degree days 1244  
Since 1 July heating degree days 4118  
Cooling Degree Days 0 0  
Month to date cooling degree days 0  
Year to date cooling degree days 0  
Moisture  
Dew Point 3 °F    
Average Humidity 78    
Maximum Humidity 95    
Minimum Humidity 56    
Precipitation  
Precipitation 0.00 in 0.03 in 0.22 in (2005)
Month to date precipitation 1.08  
Year to date precipitation 1.08  
Sea Level Pressure  
Sea Level Pressure 30.06 in    
Wind  
Wind Speed 1 mph (NNE)    
Max Wind Speed 5 mph    
Max Gust Speed -    
Visibility 10 miles    
Events Thunderstorm    
T = Trace of Precipitation, MM = Missing Value Source: NWS Daily Summary

Daily Weather History Graph

Daily Weather History Graph

Search for Another Location

Airport:

Trip Planner

Search our weather history database for the weather conditions in past years. The results will help you decide how hot, cold, wet, or windy it might be!

Date:

Astronomy

Jan. 30, 2013 Rise Set
Actual Time 7:12 AM MST 5:30 PM MST
Civil Twilight 6:45 AM MST 5:58 PM MST
Nautical Twilight 6:13 AM MST 6:29 PM MST
Astronomical Twilight 5:43 AM MST 7:00 PM MST
Moon 9:25 PM MST (1/30) 8:48 AM MST (1/30)
Length of Visible Light 11h 13m
Length of Day
10h 18m
Waning Gibbous, 87% of the Moon is Illuminated
Jan 30
Waning Gibbous
Feb 3
Last Quarter
Feb 10
New
Feb 17
First Quarter
Feb 25
Full

Hourly Weather History & Observations

Time (MST) Temp. Windchill Dew Point Humidity Pressure Visibility Wind Dir Wind Speed Gust Speed Precip Events Conditions
12:15 AM -0.4 °F - -3.5 °F 87% 29.92 in 10.0 mi Calm Calm - N/A   Clear
12:35 AM -2.7 °F - -5.8 °F 87% 29.92 in 10.0 mi Calm Calm - N/A   Clear
12:55 AM -3.3 °F - -7.8 °F 81% 29.93 in 10.0 mi Calm Calm - N/A   Scattered Clouds
1:15 AM -1.5 °F - -4.5 °F 87% 29.93 in 10.0 mi Calm Calm - N/A   Overcast
1:35 AM 0.9 °F - -3.3 °F 83% 29.94 in 10.0 mi Calm Calm - N/A   Overcast
1:55 AM -0.9 °F - -4.9 °F 83% 29.95 in 10.0 mi Calm Calm - N/A   Overcast
2:15 AM -3.1 °F - -7.6 °F 81% 29.95 in 10.0 mi Calm Calm - N/A   Scattered Clouds
2:35 AM -0.6 °F - -4.0 °F 85% 29.95 in 10.0 mi Calm Calm - N/A   Clear
2:55 AM -2.6 °F - -6.7 °F 82% 29.95 in 10.0 mi Calm Calm - N/A   Clear
3:15 AM -4.2 °F - -9.8 °F 77% 29.95 in 10.0 mi Calm Calm - N/A   Clear
3:35 AM -2.9 °F - -7.2 °F 82% 29.96 in 10.0 mi Calm Calm - N/A   Clear
3:55 AM -3.3 °F -13.7 °F -7.1 °F 84% 29.96 in 10.0 mi NW 4.6 mph - N/A   Clear
4:15 AM -3.5 °F - -7.2 °F 84% 29.95 in 10.0 mi Calm Calm - N/A   Clear
4:35 AM -3.1 °F - -6.7 °F 85% 29.96 in 10.0 mi Calm Calm - N/A   Clear
4:55 AM -4.9 °F - -8.9 °F 83% 29.96 in 10.0 mi Calm Calm - N/A   Clear
5:15 AM -7.8 °F - -12.8 °F 79% 29.97 in 10.0 mi Calm Calm - N/A   Clear
5:35 AM -4.9 °F -15.6 °F -9.6 °F 80% 29.98 in 10.0 mi NNE 4.6 mph - N/A   Clear
6:15 AM -4.2 °F - -9.9 °F 76% 29.98 in 10.0 mi Calm Calm - N/A Thunderstorm Thunderstorm
6:35 AM -4.5 °F - -8.0 °F 85% 29.99 in 10.0 mi Calm Calm - N/A   Clear
6:55 AM -5.6 °F - -10.7 °F 79% 30.00 in 10.0 mi Calm Calm - N/A   Clear
7:15 AM -4.2 °F - -8.0 °F 84% 30.00 in 10.0 mi Calm Calm - N/A   Clear
7:35 AM -5.3 °F - -9.6 °F 82% 30.02 in 10.0 mi Calm Calm - N/A   Clear
7:55 AM -2.7 °F - -7.1 °F 82% 30.03 in 10.0 mi Calm Calm - N/A   Clear
8:15 AM 0.3 °F - -3.5 °F 84% 30.03 in 10.0 mi Calm Calm - N/A   Clear
8:35 AM -1.3 °F - -5.8 °F 81% 30.05 in 10.0 mi Calm Calm - N/A   Clear
8:55 AM 4.5 °F - 0.5 °F 84% 30.05 in 10.0 mi Calm Calm - N/A   Clear
9:15 AM 7.3 °F - 3.2 °F 83% 30.07 in 10.0 mi Calm Calm - N/A   Clear
9:35 AM 7.0 °F - 2.5 °F 82% 30.07 in 10.0 mi Calm Calm - N/A   Clear
9:55 AM 10.2 °F - 5.9 °F 83% 30.08 in 10.0 mi Calm Calm - N/A   Clear
10:15 AM 11.7 °F - 5.7 °F 77% 30.09 in 10.0 mi Calm Calm - N/A   Clear
10:35 AM 12.7 °F - 4.5 °F 70% 30.11 in 10.0 mi Calm Calm - N/A   Clear
10:55 AM 14.2 °F - 6.3 °F 71% 30.11 in 10.0 mi Calm Calm - N/A   Clear
11:15 AM 16.9 °F 11.5 °F 7.9 °F 68% 30.12 in 10.0 mi SSE 3.5 mph - N/A   Clear
11:35 AM 17.4 °F 12.1 °F 7.2 °F 64% 30.12 in 10.0 mi SSE 3.5 mph - N/A   Clear
11:55 AM 19.4 °F - 6.6 °F 58% 30.12 in 10.0 mi Calm Calm - N/A   Clear
12:15 PM 19.4 °F - 7.2 °F 59% 30.12 in 10.0 mi Calm Calm - N/A   Clear
12:35 PM 19.0 °F - 7.5 °F 61% 30.11 in 10.0 mi Calm Calm - N/A   Clear
1:15 PM 21.6 °F - 9.0 °F 58% 30.11 in 10.0 mi Calm Calm - N/A   Clear
1:35 PM 21.2 °F - 8.6 °F 58% 30.10 in 10.0 mi Calm Calm - N/A   Mostly Cloudy
1:55 PM 23.4 °F - 10.4 °F 58% 30.10 in 10.0 mi Calm Calm - N/A   Overcast
2:15 PM 22.8 °F - 9.3 °F 56% 30.10 in 10.0 mi Calm Calm - N/A   Overcast
2:35 PM 22.1 °F 15.9 °F 9.9 °F 59% 30.10 in 10.0 mi NNE 4.6 mph - N/A   Overcast
2:55 PM 24.1 °F 19.7 °F 10.8 °F 57% 30.10 in 10.0 mi East 3.5 mph - N/A   Overcast
3:15 PM 24.8 °F 19.1 °F 11.3 °F 57% 30.10 in 10.0 mi ENE 4.6 mph - N/A   Overcast
3:35 PM 24.3 °F 18.4 °F 11.1 °F 57% 30.10 in 10.0 mi NE 4.6 mph - N/A   Scattered Clouds
3:55 PM 24.4 °F - 11.8 °F 59% 30.10 in 10.0 mi Calm Calm - N/A   Mostly Cloudy
4:15 PM 24.6 °F 18.8 °F 12.2 °F 59% 30.10 in 10.0 mi NE 4.6 mph - N/A   Mostly Cloudy
4:35 PM 24.3 °F 18.4 °F 12.6 °F 61% 30.10 in 10.0 mi NNE 4.6 mph - N/A   Mostly Cloudy
5:15 PM 21.0 °F 16.2 °F 12.7 °F 70% 30.11 in 10.0 mi North 3.5 mph - N/A   Mostly Cloudy
5:35 PM 20.5 °F - 13.5 °F 74% 30.11 in 10.0 mi Calm Calm - N/A   Overcast
5:55 PM 18.3 °F 13.1 °F 12.0 °F 76% 30.11 in 10.0 mi NNE 3.5 mph - N/A   Overcast
6:15 PM 20.1 °F 13.6 °F 13.3 °F 75% 30.11 in 10.0 mi North 4.6 mph - N/A   Overcast
6:35 PM 19.4 °F 12.8 °F 13.1 °F 76% 30.12 in 10.0 mi North 4.6 mph - N/A   Mostly Cloudy
6:55 PM 18.1 °F - 13.5 °F 82% 30.12 in 10.0 mi Calm Calm - N/A   Scattered Clouds
7:15 PM 13.3 °F - 10.2 °F 88% 30.12 in 10.0 mi Calm Calm - N/A   Clear
7:35 PM 14.9 °F - 13.6 °F 95% 30.13 in 10.0 mi Calm Calm - N/A   Clear
7:55 PM 16.0 °F - 14.0 °F 92% 30.13 in 10.0 mi Calm Calm - N/A   Clear
8:15 PM 12.7 °F - 10.2 °F 90% 30.14 in 10.0 mi Calm Calm - N/A   Clear
8:35 PM 10.2 °F - 8.2 °F 92% 30.15 in 10.0 mi Calm Calm - N/A   Mostly Cloudy
8:55 PM 13.1 °F - 11.1 °F 92% 30.15 in 10.0 mi Calm Calm - N/A   Scattered Clouds
9:15 PM 13.1 °F 5.4 °F 10.9 °F 91% 30.15 in 10.0 mi NNE 4.6 mph - N/A   Clear
9:35 PM 10.4 °F - 8.8 °F 93% 30.15 in 10.0 mi Calm Calm - N/A   Clear
9:55 PM 9.7 °F - 7.0 °F 89% 30.15 in 10.0 mi Calm Calm - N/A   Clear
10:15 PM 9.0 °F - 6.1 °F 88% 30.15 in 10.0 mi Calm Calm - N/A   Clear
10:35 PM 6.8 °F - 4.8 °F 92% 30.15 in 10.0 mi Calm Calm - N/A   Clear
10:55 PM 6.4 °F - 3.7 °F 89% 30.15 in 10.0 mi Calm Calm - N/A   Clear
11:15 PM 4.5 °F -2.7 °F -0.8 °F 79% 30.15 in 10.0 mi WNW 3.5 mph - N/A   Clear
11:35 PM 5.9 °F - 1.6 °F 82% 30.17 in 10.0 mi Calm Calm - N/A   Scattered Clouds
11:55 PM 6.3 °F - 3.9 °F 90% 30.17 in 10.0 mi Calm Calm - N/A   Scattered Clouds